GW4324 Weather Reports


Display with metric or nautical units.
time (UTC)temp
F
wind
direction
speed
MPH
gust
MPH
rain 1hr
in
rain 24hr
in
rain mn
in
humidity
%
barometer
mb
20260509223210 61 152 6.0 6.0 0.00 0.24 0.24 81 1011.1
20260509222707 60 173 4.0 6.0 0.00 0.24 0.24 82 1011.2
20260509222203 60 183 3.0 6.0 0.00 0.24 0.24 82 1010.9
20260509221659 62 176 2.0 4.0 0.00 0.24 0.24 81 1011.0
20260509221155 61 167 3.0 5.0 0.00 0.24 0.24 81 1011.1
20260509220651 62 130 3.0 4.0 0.00 0.24 0.24 82 1011.1
20260509220148 61 220 4.0 5.0 0.00 0.24 0.24 79 1011.2
20260509215644 62 188 6.0 11.0 0.00 0.24 0.24 79 1011.4
20260509215140 61 189 6.0 11.0 0.00 0.24 0.24 78 1011.2
20260509214637 62 195 6.0 9.0 0.00 0.24 0.24 79 1011.5
20260509214134 61 210 4.0 7.0 0.00 0.24 0.24 80 1011.5
20260509213631 62 205 6.0 6.0 0.00 0.24 0.24 79 1011.5
20260509213127 60 203 6.0 9.0 0.00 0.24 0.24 82 1011.4
20260509212625 60 198 5.0 10.0 0.00 0.24 0.24 81 1011.7
20260509212122 61 226 4.0 6.0 0.00 0.24 0.24 81 1011.4
20260509211617 61 232 5.0 10.0 0.00 0.24 0.24 80 1011.6
20260509211114 61 221 6.0 9.0 0.00 0.24 0.24 79 1011.6
20260509210611 61 189 6.0 11.0 0.00 0.24 0.24 80 1011.5
20260509210108 61 218 6.0 8.0 0.00 0.24 0.24 82 1011.4
20260509205608 61 196 6.0 11.0 0.00 0.24 0.24 81 1011.4
20260509205103 60 226 7.0 8.0 0.00 0.24 0.24 85 1011.5
20260509204559 59 193 10.0 11.0 0.00 0.24 0.24 84 1011.5
20260509204056 59 158 3.0 6.0 0.00 0.24 0.24 87 1011.8
20260509203552 59 184 4.0 5.0 0.00 0.24 0.24 87 1011.9
20260509203051 58 181 2.0 9.0 0.00 0.24 0.24 88 1011.7
20260509202545 58 193 3.0 9.0 0.00 0.24 0.24 88 1011.8
20260509202041 57 200 6.0 9.0 0.00 0.24 0.24 89 1011.8
20260509201536 57 185 5.0 10.0 0.00 0.24 0.24 89 1011.8
20260509201034 57 186 2.0 11.0 0.00 0.24 0.24 91 1011.8
20260509200532 57 194 6.0 11.0 0.00 0.24 0.24 91 1012.0
20260509200030 57 202 8.0 9.0 0.00 0.24 0.24 90 1012.1
20260509195525 57 198 3.0 8.0 0.00 0.24 0.24 92 1012.0
20260509195025 57 175 4.0 5.0 0.00 0.24 0.24 92 1012.1
20260509194520 57 213 4.0 6.0 0.00 0.24 0.24 92 1012.2
20260509194018 57 183 4.0 9.0 0.00 0.24 0.24 92 1012.3
20260509193518 57 202 6.0 9.0 0.00 0.24 0.24 92 1012.4
20260509193015 56 193 6.0 8.0 0.00 0.24 0.24 93 1012.5
20260509192512 56 199 5.0 8.0 0.00 0.24 0.24 92 1012.8
20260509192007 56 191 5.0 8.0 0.00 0.24 0.24 92 1012.6
20260509191502 56 199 6.0 11.0 0.00 0.24 0.24 92 1012.6
20260509190957 56 183 3.0 6.0 0.00 0.24 0.24 95 1012.5
20260509190455 56 197 3.0 9.0 0.00 0.24 0.24 95 1012.5
20260509185953 56 164 5.0 6.0 0.00 0.24 0.24 96 1012.5
20260509185449 55 186 6.0 9.0 0.00 0.24 0.24 96 1012.6
20260509184946 55 201 4.0 7.0 0.00 0.24 0.24 97 1012.6
20260509184445 55 205 4.0 8.0 0.00 0.24 0.24 97 1012.6
20260509183941 55 187 4.0 6.0 0.00 0.24 0.24 98 1012.4
20260509183441 55 186 3.0 5.0 0.02 0.24 0.24 98 1012.6
20260509182937 55 197 4.0 4.0 0.07 0.24 0.24 98 1012.6
20260509182434 54 198 1.0 3.0 0.07 0.23 0.23 99 1012.5
20260509181931 54 215 3.0 4.0 0.02 0.22 0.22 98 1012.5
20260509181429 54 184 3.0 5.0 0.05 0.22 0.22 98 1012.7
20260509180926 54 179 4.0 4.0 0.09 0.22 0.22 98 1012.7
20260509180421 54 178 3.0 5.0 0.07 0.21 0.21 98 1012.7
20260509175919 54 183 4.0 8.0 0.05 0.20 0.20 98 1012.9
20260509175415 54 185 3.0 5.0 0.07 0.20 0.20 98 1012.8
20260509174911 54 180 3.0 7.0 0.09 0.20 0.20 98 1012.8
20260509174408 54 195 5.0 6.0 0.07 0.19 0.19 98 1012.9
20260509173904 54 196 4.0 6.0 0.05 0.18 0.18 98 1012.7
20260509173403 54 171 2.0 5.0 0.07 0.18 0.18 97 1012.7
20260509172900 54 186 4.0 10.0 0.07 0.17 0.17 97 1012.9
20260509172357 54 194 6.0 8.0 0.05 0.17 0.17 97 1013.0
20260509171852 54 204 4.0 6.0 0.05 0.16 0.16 98 1012.8
20260509171349 54 194 3.0 6.0 0.05 0.16 0.16 98 1012.8
20260509170845 54 172 3.0 5.0 0.05 0.15 0.15 98 1012.6
20260509170341 53 189 5.0 6.0 0.05 0.15 0.15 97 1012.7
20260509165836 54 196 2.0 5.0 0.02 0.15 0.15 98 1012.7
20260509165331 54 155 2.0 5.0 0.02 0.14 0.14 98 1012.7
20260509164827 54 162 2.0 3.0 0.02 0.14 0.14 98 1012.8
20260509164323 54 136 1.0 3.0 0.05 0.14 0.14 98 1012.8
20260509163820 54 182 5.0 6.0 0.02 0.13 0.13 98 1012.8
20260509163316 54 181 3.0 5.0 0.05 0.13 0.13 98 1012.6
20260509162815 54 129 0.0 2.0 0.02 0.13 0.13 98 1012.8
20260509162308 54 138 2.0 3.0 0.05 0.12 0.12 98 1012.8
20260509161805 54 182 3.0 5.0 0.05 0.12 0.12 98 1012.7
20260509161301 54 166 1.0 3.0 0.05 0.11 0.11 98 1012.9
20260509160756 54 174 1.0 4.0 0.07 0.11 0.11 97 1013.0
20260509160253 54 184 3.0 5.0 0.07 0.11 0.11 97 1013.1
20260509155748 54 193 4.0 5.0 0.05 0.10 0.10 96 1012.8
20260509155245 54 165 2.0 4.0 0.07 0.09 0.09 96 1013.0
20260509154741 54 184 5.0 6.0 0.05 0.09 0.09 95 1013.2
20260509154238 54 185 4.0 6.0 0.02 0.08 0.08 95 1012.8
20260509153735 54 213 4.0 6.0 0.02 0.08 0.08 96 1013.1
20260509153231 54 184 4.0 5.0 0.02 0.08 0.08 96 1012.9
20260509152728 54 171 2.0 4.0 0.05 0.08 0.08 96 1013.1
20260509152224 54 178 1.0 2.0 0.05 0.07 0.07 95 1013.3
20260509151721 54 191 3.0 6.0 0.02 0.07 0.07 94 1013.3
20260509151218 54 171 2.0 4.0 0.02 0.07 0.07 95 1013.2
20260509150716 54 180 2.0 4.0 0.02 0.07 0.07 95 1013.3
20260509150214 54 177 2.0 4.0 0.02 0.06 0.06 95 1013.3
20260509145710 53 169 3.0 5.0 0.02 0.06 0.06 95 1013.2
20260509145205 53 199 3.0 4.0 0.02 0.06 0.06 95 1013.4
20260509144702 53 134 2.0 3.0 0.02 0.06 0.06 95 1013.4
20260509144159 53 153 2.0 3.0 0.02 0.06 0.06 95 1013.5
20260509143656 53 154 2.0 3.0 0.02 0.06 0.06 95 1013.4
20260509143154 53 131 2.0 3.0 0.00 0.05 0.05 96 1013.4
20260509142649 53 128 2.0 2.0 0.02 0.05 0.05 96 1013.2
20260509142146 53 143 1.0 3.0 0.02 0.05 0.05 96 1013.4
20260509141641 53 124 2.0 2.0 0.02 0.05 0.05 96 1013.1
20260509141138 53 113 1.0 2.0 0.02 0.04 0.04 96 1013.3
20260509140635 53 145 1.0 2.0 0.05 0.04 0.04 97 1013.5
20260509140133 53 135 2.0 2.0 0.05 0.04 0.04 97 1013.4
20260509135630 52 96 1.0 2.0 0.02 0.04 0.04 96 1013.5
20260509135128 52 127 2.0 2.0 0.02 0.03 0.03 96 1013.5
20260509134624 52 126 2.0 3.0 0.05 0.03 0.03 96 1013.6
20260509134122 53 120 1.0 2.0 0.02 0.03 0.03 96 1013.3
20260509133619 52 101 2.0 2.0 0.00 0.02 0.02 96 1013.3
20260509133116 52 126 0.0 2.0 0.00 0.02 0.02 96 1013.4
20260509132614 53 163 2.0 2.0 0.00 0.02 0.02 96 1013.5
20260509132113 52 123 2.0 2.0 0.02 0.02 0.02 97 1013.4
20260509131608 52 121 2.0 2.0 0.02 0.02 0.02 97 1013.4
20260509131105 52 60 1.0 2.0 0.00 0.02 0.02 97 1013.5
20260509130601 52 117 2.0 3.0 0.02 0.02 0.02 97 1013.7
20260509130058 52 99 1.0 2.0 0.02 0.02 0.02 97 1013.4
20260509125554 52 122 0.0 2.0 0.00 0.02 0.02 97 1013.6
20260509125051 51 61 0.0 2.0 0.00 0.02 0.02 97 1013.6
20260509124547 51 105 0.0 2.0 0.00 0.02 0.02 97 1013.8
20260509124045 51 182 1.0 2.0 0.00 0.02 0.02 97 1013.8
20260509123543 51 143 0.0 2.0 0.00 0.02 0.02 97 1013.7
20260509123039 51 123 0.0 2.0 0.00 0.02 0.02 97 1013.6
20260509122535 51 130 0.0 0.0 0.02 0.02 0.02 97 1013.5
20260509122032 51 98 0.0 0.0 0.02 0.02 0.02 97 1013.6
20260509121529 51 124 0.0 1.0 0.00 0.01 0.01 98 1013.4
20260509121026 51 130 2.0 2.0 0.00 0.01 0.01 98 1013.7
20260509120525 51 96 1.0 2.0 0.02 0.01 0.01 98 1013.6
20260509120023 51 80 2.0 3.0 0.02 0.01 0.01 98 1013.4
20260509115519 50 100 1.0 2.0 0.00 0.01 0.01 98 1013.6
20260509115017 50 342 0.0 2.0 0.00 0.01 0.01 99 1013.6
20260509114515 50 163 0.0 2.0 0.00 0.01 0.01 99 1013.4
20260509114014 50 57 0.0 2.0 0.00 0.01 0.01 99 1013.3
20260509113512 50 105 2.0 2.0 0.00 0.01 0.01 99 1013.2
20260509113009 50 56 1.0 2.0 0.00 0.01 0.01 99 1013.5
20260509112505 50 96 2.0 2.0 0.00 0.01 0.01 99 1013.3
20260509112002 50 48 2.0 3.0 0.00 0.01 0.01 99 1013.4
20260509111459 50 69 0.0 2.0 0.00 0.01 0.01 99 1013.4
20260509110956 50 47 1.0 2.0 0.00 0.01 0.01 99 1013.5
20260509110452 50 111 0.0 1.0 0.00 0.01 0.01 99 1013.6
20260509105950 50 117 0.0 0.0 0.00 0.01 0.01 99 1013.4
20260509105449 50 68 2.0 4.0 0.00 0.01 0.01 99 1013.2
20260509104945 50 43 2.0 4.0 0.02 0.01 0.01 99 1013.2
20260509104442 50 14 3.0 4.0 0.02 0.01 0.01 99 1013.2
20260509103939 50 14 0.0 5.0 0.00 0.00 0.00 99 1013.2
20260509103437 50 19 4.0 4.0 0.00 0.00 0.00 99 1013.4
20260509102935 49 126 2.0 6.0 0.00 0.00 0.00 99 1013.0
20260509102432 50 41 1.0 5.0 0.00 0.00 0.00 99 1013.5
20260509101928 49 79 3.0 5.0 0.00 0.00 0.00 99 1013.1
20260509101425 49 281 1.0 2.0 0.00 0.00 0.00 99 1013.3
20260509100922 49 119 2.0 3.0 0.00 0.00 0.00 99 1013.4
20260509100419 49 86 1.0 1.0 0.00 0.00 0.00 99 1013.3
20260509095916 50 103 2.0 3.0 0.00 0.00 0.00 99 1013.3
20260509095413 50 48 2.0 2.0 0.00 0.00 0.00 99 1013.4
20260509094910 50 35 0.0 2.0 0.00 0.00 0.00 99 1013.4
20260509094406 50 114 2.0 3.0 0.00 0.00 0.00 99 1013.3
20260509093905 50 103 0.0 2.0 0.00 0.00 0.00 99 1013.4
20260509093401 50 64 4.0 4.0 0.00 0.00 0.00 99 1013.3
20260509092900 50 79 4.0 4.0 0.00 0.00 0.00 99 1013.5
20260509092357 50 33 4.0 4.0 0.00 0.00 0.00 99 1013.4
20260509091855 50 81 3.0 4.0 0.00 0.00 0.00 99 1013.6
20260509091352 50 11 2.0 4.0 0.00 0.00 0.00 99 1013.7
20260509090849 50 75 2.0 3.0 0.00 0.00 0.00 99 1013.8
20260509090346 50 10 2.0 3.0 0.00 0.00 0.00 99 1013.6
20260509085844 50 15 2.0 2.0 0.00 0.00 0.00 99 1013.6
20260509085341 50 4 1.0 2.0 0.00 0.00 0.00 99 1013.6
20260509084837 50 355 1.0 2.0 0.00 0.00 0.00 99 1013.6
20260509084334 50 2 1.0 2.0 0.00 0.00 0.00 99 1013.5
20260509083832 50 36 1.0 2.0 0.00 0.00 0.00 99 1013.4
20260509083328 50 48 2.0 3.0 0.00 0.00 0.00 99 1013.5
20260509082825 50 53 2.0 3.0 0.00 0.00 0.00 99 1013.4
20260509082322 50 101 2.0 3.0 0.00 0.00 0.00 99 1013.2
20260509081819 50 99 1.0 2.0 0.00 0.00 0.00 99 1013.6
20260509081316 50 73 2.0 3.0 0.00 0.00 0.00 99 1013.5
20260509080814 50 103 2.0 3.0 0.00 0.00 0.00 99 1013.4
20260509080312 50 106 3.0 4.0 0.00 0.00 0.00 99 1013.5
20260509075810 51 103 2.0 3.0 0.00 0.00 0.00 99 1013.5
20260509075307 50 107 2.0 2.0 0.00 0.00 0.00 99 1013.5
20260509074804 51 70 0.0 3.0 0.00 0.00 0.00 99 1013.8
20260509074301 51 96 2.0 3.0 0.00 0.00 0.00 99 1013.7
20260509073757 50 109 3.0 3.0 0.00 0.00 0.00 99 1013.7
20260509073254 50 99 3.0 3.0 0.00 0.00 0.00 99 1013.7
20260509072750 50 79 4.0 4.0 0.00 0.00 0.00 99 1013.9
20260509072247 50 71 2.0 3.0 0.00 0.00 0.00 99 1014.0
20260509071744 50 105 1.0 2.0 0.00 0.00 0.00 99 1014.0
20260509071241 50 58 1.0 2.0 0.00 0.00 0.00 99 1014.0
20260509070738 50 36 2.0 2.0 0.00 0.00 0.00 99 1014.2
20260509070234 50 81 2.0 2.0 0.00 0.00 0.00 99 1014.0
20260509065731 50 61 2.0 3.0 0.00 0.00 0.00 99 1013.9
20260509065227 50 72 1.0 2.0 0.02 0.00 0.00 99 1014.2
20260509064724 50 328 0.0 1.0 0.02 0.00 0.00 99 1014.3
20260509064221 50 49 0.0 2.0 0.00 0.00 0.00 99 1013.9
20260509063719 50 60 0.0 2.0 0.00 0.00 0.00 99 1014.0
20260509063215 50 106 2.0 3.0 0.00 0.00 0.00 99 1014.0
20260509062712 50 74 0.0 1.0 0.00 0.00 0.00 99 1014.3
20260509062209 50 85 1.0 2.0 0.00 0.00 0.00 98 1014.4
20260509061706 50 32 1.0 2.0 0.00 0.00 0.00 98 1014.6
20260509061204 50 105 2.0 2.0 0.00 0.00 0.00 98 1014.6
20260509060701 50 87 0.0 1.0 0.00 0.00 0.00 98 1014.6
20260509060157 50 74 0.0 1.0 0.00 0.00 0.00 98 1014.4
20260509055652 51 7 2.0 2.0 0.00 0.00 0.00 97 1014.6
20260509055149 51 85 0.0 1.0 0.00 0.00 0.00 97 1014.6
20260509054645 51 98 2.0 2.0 0.00 0.00 0.00 97 1014.7
20260509054143 51 80 2.0 2.0 0.00 0.00 0.00 96 1014.8
20260509053641 51 100 1.0 2.0 0.00 0.00 0.00 96 1014.8
20260509053138 51 59 0.0 1.0 0.00 0.00 0.00 96 1014.9
20260509052636 51 111 2.0 2.0 0.00 0.00 0.00 96 1014.9
20260509052133 51 119 0.0 2.0 0.00 0.00 0.00 95 1015.0
20260509051631 51 69 1.0 2.0 0.00 0.00 0.00 95 1014.9
20260509051128 51 102 2.0 2.0 0.00 0.00 0.00 95 1015.0
20260509050625 51 74 1.0 3.0 0.00 0.00 0.00 94 1015.1
20260509050121 51 115 2.0 2.0 0.00 0.00 0.00 94 1015.1
20260509045619 51 95 1.0 2.0 0.00 0.00 0.00 95 1014.9
20260509045116 51 26 1.0 1.0 0.00 0.00 0.00 94 1014.9
20260509044613 51 161 2.0 3.0 0.00 0.00 0.00 95 1015.0
20260509044110 51 161 2.0 2.0 0.00 0.00 0.00 96 1015.1
20260509043607 51 159 1.0 2.0 0.00 0.00 0.00 96 1015.1
20260509043102 51 177 1.0 2.0 0.00 0.00 0.00 97 1014.9
20260509042559 51 160 1.0 2.0 0.00 0.00 0.00 97 1014.6
20260509042055 51 124 0.0 1.0 0.00 0.00 0.00 96 1014.3
20260509041552 51 114 1.0 2.0 0.00 0.00 0.00 95 1014.3
20260509041049 51 87 1.0 1.0 0.00 0.00 0.00 95 1014.3
20260509040547 51 64 0.0 3.0 0.00 0.00 0.00 95 1014.5
20260509040044 51 86 2.0 3.0 0.00 0.07 0.07 95 1014.6
20260509035541 51 105 1.0 2.0 0.00 0.07 0.07 96 1014.6
20260509035037 51 32 0.0 2.0 0.00 0.07 0.07 96 1014.5
20260509034536 51 63 0.0 2.0 0.00 0.07 0.07 95 1014.5
20260509034032 51 108 1.0 2.0 0.00 0.07 0.07 95 1014.5
20260509033530 51 102 0.0 2.0 0.00 0.07 0.07 95 1014.5
20260509033026 51 109 2.0 3.0 0.00 0.07 0.07 95 1014.7
20260509032524 51 110 2.0 3.0 0.00 0.07 0.07 95 1014.8
20260509032021 51 71 2.0 2.0 0.00 0.07 0.07 95 1014.7
20260509031518 51 70 2.0 3.0 0.00 0.07 0.07 95 1014.7
20260509031015 51 22 0.0 1.0 0.00 0.07 0.07 95 1014.9
20260509030513 51 89 1.0 2.0 0.00 0.07 0.07 95 1014.9
20260509030010 51 71 1.0 2.0 0.00 0.07 0.07 95 1015.0
20260509025506 51 49 2.0 2.0 0.00 0.07 0.07 94 1014.7
20260509025001 52 83 2.0 3.0 0.00 0.07 0.07 93 1014.7
20260509024457 52 124 0.0 0.0 0.00 0.07 0.07 92 1014.8
20260509023954 52 102 2.0 2.0 0.00 0.07 0.07 92 1014.8
20260509023452 52 124 0.0 2.0 0.00 0.07 0.07 93 1014.8
20260509022949 52 329 0.0 2.0 0.00 0.07 0.07 91 1015.0
20260509022445 53 110 2.0 3.0 0.00 0.07 0.07 90 1015.1
20260509021943 52 125 3.0 3.0 0.00 0.07 0.07 89 1015.1
20260509021439 52 92 1.0 2.0 0.05 0.07 0.07 90 1015.1
20260509020937 52 80 1.0 2.0 0.07 0.07 0.07 90 1015.2
20260509020435 53 57 2.0 2.0 0.00 0.06 0.06 90 1014.8
20260509015932 53 83 0.0 0.0 0.00 0.06 0.06 86 1014.9
20260509015431 53 106 0.0 2.0 0.00 0.06 0.06 83 1014.7
20260509014927 53 39 0.0 0.0 0.00 0.06 0.06 83 1014.9
20260509014424 53 103 2.0 2.0 0.00 0.06 0.06 80 1014.6
20260509013920 53 95 0.0 1.0 0.00 0.06 0.06 81 1014.4
20260509013417 54 92 2.0 2.0 0.00 0.06 0.06 80 1014.5
20260509012913 54 111 0.0 2.0 0.00 0.06 0.06 76 1014.4
20260509012410 54 118 2.0 2.0 0.00 0.06 0.06 76 1014.5
20260509011907 54 120 2.0 2.0 0.00 0.06 0.06 77 1014.4
20260509011404 54 103 2.0 2.0 0.00 0.06 0.06 77 1014.4
20260509010902 54 102 2.0 2.0 0.00 0.06 0.06 78 1014.4
20260509010359 54 108 2.0 2.0 0.00 0.06 0.06 79 1014.3
20260509005856 55 134 2.0 2.0 0.00 0.06 0.06 78 1014.3
20260509005354 54 107 0.0 1.0 0.00 0.06 0.06 78 1014.3
20260509004849 55 66 0.0 1.0 0.00 0.06 0.06 77 1014.3
20260509004345 55 133 1.0 2.0 0.00 0.06 0.06 75 1014.1
20260509003843 55 135 0.0 2.0 0.00 0.06 0.06 76 1014.2
20260509003341 55 120 2.0 2.0 0.00 0.06 0.06 75 1014.1
20260509002838 55 123 2.0 2.0 0.00 0.06 0.06 75 1014.2
20260509002335 55 97 1.0 2.0 0.00 0.06 0.06 74 1014.1
20260509001833 56 125 2.0 2.0 0.00 0.06 0.06 75 1014.0
20260509001328 56 111 1.0 2.0 0.00 0.06 0.06 77 1013.9
20260509000826 56 117 1.0 2.0 0.00 0.06 0.06 75 1013.9
20260509000325 56 121 2.0 2.0 0.00 0.06 0.06 74 1014.1
20260508235820 55 116 1.0 2.0 0.00 0.06 0.06 76 1014.1
20260508235317 56 112 1.0 1.0 0.00 0.06 0.06 78 1014.0
20260508234814 56 122 0.0 1.0 0.00 0.06 0.06 74 1014.0
20260508234310 56 108 2.0 3.0 0.00 0.06 0.06 75 1014.0
20260508233809 56 89 0.0 2.0 0.00 0.06 0.06 77 1013.9
20260508233308 57 150 0.0 2.0 0.00 0.06 0.06 76 1013.8
20260508232804 56 114 2.0 3.0 0.00 0.06 0.06 76 1013.5
20260508232301 56 99 1.0 2.0 0.00 0.06 0.06 77 1013.6
20260508231800 56 77 0.0 3.0 0.00 0.06 0.06 76 1013.5
20260508231255 56 107 2.0 3.0 0.00 0.06 0.06 76 1013.6
20260508230752 57 104 2.0 2.0 0.00 0.06 0.06 74 1013.7
20260508230248 57 122 4.0 4.0 0.00 0.06 0.06 74 1013.4
20260508225746 57 100 2.0 3.0 0.00 0.06 0.06 71 1013.5
20260508225242 56 78 3.0 3.0 0.00 0.06 0.06 72 1013.8
20260508224740 56 111 2.0 3.0 0.00 0.06 0.06 70 1013.6
20260508224238 56 12 1.0 2.0 0.00 0.06 0.06 70 1013.9
20260508223735 57 105 0.0 1.0 0.00 0.06 0.06 71 1013.9